Regional Weather Roundup
Issued by NWS Little Rock, AR

Home | Current Version | Previous Version | Text Only | Print | Product List | Glossary Off
Versions: 1 2 3 4 5 6 7 8 9 10 11 12 13 14 15 16 17 18 19 20 21 22 23 24 25 26 27 28 29 30 31 32 33

000
ASUS44 KLZK 290305
RWRLZK

WEATHER ROUNDUP FOR ARKANSAS
NATIONAL WEATHER SERVICE LITTLE ROCK AR
1000 PM CDT TUE MAR 28 2017

NOTE: "FAIR" INDICATES FEW OR NO CLOUDS BELOW 12,000 FEET WITH NO
SIGNIFICANT WEATHER AND/OR OBSTRUCTIONS TO VISIBILITY.

ARZ001-003-010-029-290400-
NORTHWEST ARKANSAS

CITY           SKY/WX    TMP DP  RH WIND       PRES   REMARKS
FAYETTEVILLE   CLOUDY    66  58  75 E9        29.85F
FORT SMITH     CLOUDY    70  57  63 E15G22    29.83R
HARRISON       CLOUDY    62  55  77 SE13      29.94R
BENTONVILLE    CLOUDY    64  54  68 E13       29.87S
ROGERS         CLOUDY    65  54  67 E13       29.87F
SILOAM SPGS    CLOUDY    68  55  64 SE12G22   29.84R
HIGHFILL       CLOUDY    68  58  70 E8        29.85F
$$

ARZ004-005-016-290400-
NORTH CENTRAL ARKANSAS

CITY           SKY/WX    TMP DP  RH WIND       PRES   REMARKS
BATESVILLE     PTCLDY    61  54  77 NE12      30.00R
FLIPPIN        CLEAR     63  48  59 E7        29.94S
MTN HOME       PTCLDY    61  53  75 SE10      29.95F
$$

ARZ040-041-290400-
WEST CENTRAL ARKANSAS

CITY           SKY/WX    TMP DP  RH WIND       PRES   REMARKS
MENA           CLOUDY    72  68  88 E8        29.85S
MOUNT IDA      CLOUDY    70  60  70 E8        29.85S
$$

ARZ009-017-025-026-028-290400-
NORTHEAST ARKANSAS

CITY           SKY/WX    TMP DP  RH WIND       PRES   REMARKS
CORNING        FAIR      57  54  88 NE13      30.03F
JONESBORO      CLEAR     59  54  83 NE14      29.99F
NEWPORT        CLEAR     59  56  89 NE17      29.98S
WALNUT RIDGE   CLEAR     57  52  82 NE14      30.01F
BLYTHEVILLE    CLEAR     58  56  93 NE13      30.01S
$$

ARZ022-023-033-042-044-290400-
CENTRAL ARKANSAS

CITY           SKY/WX    TMP DP  RH WIND       PRES   REMARKS
LITTLE ROCK    PTCLDY    65  60  84 NE10      29.93R
N LITTLE ROCK    N/A     65  59  80 E12       29.92S
JACKSONVILLE   CLEAR     66  59  79 NE16      29.92R
CONWAY           N/A     66  59  77 E16       29.90F
SEARCY         CLOUDY    64  58  80 NE14      29.97R
HOT SPRINGS    CLOUDY    70  61  73 E16G23    29.88S
RUSSELLVILLE   PTCLDY    65  56  72 E6        29.90F
CLINTON        CLOUDY    64  57  77 E3        29.95S
$$

ARZ036-290400-
EAST ARKANSAS

CITY           SKY/WX    TMP DP  RH WIND       PRES   REMARKS
WEST MEMPHIS   CLEAR     64  57  78 NE8       29.96R
$$

ARZ050-053-066-070-073-290400-
SOUTHWEST ARKANSAS

CITY           SKY/WX    TMP DP  RH WIND       PRES   REMARKS
ARKADELPHIA    CLOUDY    71  64  78 NE7       29.87R
CAMDEN         PTCLDY    72  63  73 E6        29.86R
TEXARKANA      PTCLDY    71  66  84 VRB5      29.81S
EL DORADO      PTCLDY    71  64  78 E8        29.85S
DE QUEEN       PTCLDY    71  66  84 E9        29.79R
$$

ARZ056-057-069-290400-
SOUTHEAST ARKANSAS

CITY           SKY/WX    TMP DP  RH WIND       PRES   REMARKS
PINE BLUFF     CLEAR     70  61  73 NE9       29.90R
STUTTGART      PTCLDY    66  54  63 NE18      29.93S
MONTICELLO     CLEAR     70  63  78 E3        29.88S

$$






USA.gov is the U.S. government's official web portal to all federal, state and local government web resources and services.